Regional Weather Roundup
Issued by NWS

Home | Current Version | Previous Version | Graphics & Text | Print | Product List | Glossary On
Versions: 1 2 3 4 5 6 7 8 9 10 11 12 13 14 15 16 17 18 19 20 21 22 23 24 25 26 27 28 29 30 31 32 33 34 35 36 37 38 39 40 41 42 43 44 45 46 47 48 49 50
000
ASUS43 KFSD 020402
RWRSD

WEATHER ROUNDUP FOR SOUTH DAKOTA
NATIONAL WEATHER SERVICE SIOUX FALLS SD
1100 PM CDT WED OCT 01 2014

NOTE: "FAIR" INDICATES FEW OR NO CLOUDS BELOW 12,000 FEET WITH NO
SIGNIFICANT WEATHER AND/OR OBSTRUCTIONS TO VISIBILITY.


SDZ001>005-009-010-012>017-020500-
NORTHWEST AND NORTH CENTRAL SOUTH DAKOTA

CITY           SKY/WX    TMP DP  RH WIND       PRES   REMARKS
BUFFALO          N/A     46  38  73 W6        29.89R
FAITH            N/A     50  44  80 W7        29.93R
MOBRIDGE       PTCLDY    52  47  83 NW6       29.87R
$$

SDZ012>016-024>037-041>051-057-063-072>074-020500-
SOUTHWEST AND SOUTH CENTRAL SOUTH DAKOTA

CITY           SKY/WX    TMP DP  RH WIND       PRES   REMARKS
RAPID CTY ARPT CLOUDY    50  43  77 W3        29.98R
PIERRE         CLOUDY    50  45  83 NW9       29.89S
CUSTER         MOCLDY    38  35  89 CALM      30.01S
ELLSWORTH AFB  CLOUDY    49  43  79 W6        29.97R
PHILIP         CLOUDY    52  47  83 W3        29.95R
PINE RIDGE     CLOUDY    48  47  96 W5        30.00R
WINNER         MOCLDY    56  48  74 NW7       29.92R
$$

SDZ004>011-016>023-039-040-020500-
NORTHEAST SOUTH DAKOTA

CITY           SKY/WX    TMP DP  RH WIND       PRES   REMARKS
ABERDEEN       PTCLDY    53  47  79 W9        29.85R
WATERTOWN      MOCLDY    52  47  83 CALM      29.85S
SISSETON         N/A     48  46  93 W5        29.82R
$$

SDZ017-020-022-023-036>040-048>070-020500-
SOUTHEAST SOUTH DAKOTA

CITY           SKY/WX    TMP DP  RH WIND       PRES   REMARKS
SIOUX FALLS    PTCLDY    54  51  90 NW5       29.82R
HURON          PTCLDY    49  46  90 W6        29.86R
CHAMBERLAIN    MOCLDY    56  47  74 NW7       29.90R
MITCHELL       CLEAR     57  48  72 NW8       29.87R
YANKTON        CLEAR     55  50  82 NW12      29.83R
$$

ABBREVIATIONS USED IN REMARKS
   TC - TEMPERATURE IN CELSIUS
  WCI - WIND CHILL INDEX
   HX - HEAT INDEX
  VSB - VISIBILITY



USA.gov is the U.S. government's official web portal to all federal, state and local government web resources and services.